TimeICT,TemperatureF,Dew PointF,Humidity,Sea Level PressureIn,VisibilityMPH,Wind Direction,Wind SpeedMPH,Gust SpeedMPH,PrecipitationIn,Events,Conditions,WindDirDegrees,DateUTC
12:00 AM,80.6,71.6,74,29.92,5.6,Calm,Calm,-,N/A,,Scattered Clouds,0,2013-02-06 17:00:00
12:30 AM,80.6,71.6,74,29.89,5.6,NNW,2.3,-,N/A,,Scattered Clouds,340,2013-02-06 17:30:00
1:00 AM,78,74,85,29.86,6,Calm,Calm,,,,Mist,,2013-02-06 18:00:00
1:00 AM,77.0,73.4,89,29.89,5.6,Calm,Calm,-,N/A,,Scattered Clouds,0,2013-02-06 18:00:00
1:30 AM,78.8,73.4,83,29.89,5.6,NNE,3.5,-,N/A,,Scattered Clouds,30,2013-02-06 18:30:00
2:00 AM,77.0,71.6,83,29.86,5.6,Calm,Calm,-,N/A,,Scattered Clouds,0,2013-02-06 19:00:00
2:30 AM,75.2,71.6,89,29.86,5.6,Calm,Calm,-,N/A,,Scattered Clouds,0,2013-02-06 19:30:00
3:00 AM,75.2,71.6,89,29.86,5.6,Calm,Calm,-,N/A,,Scattered Clouds,0,2013-02-06 20:00:00
3:30 AM,75.2,71.6,89,29.86,5.6,Calm,Calm,-,N/A,,Scattered Clouds,0,2013-02-06 20:30:00
4:00 AM,75.2,71.6,89,29.83,5.6,Calm,Calm,-,N/A,,Scattered Clouds,0,2013-02-06 21:00:00
4:30 AM,75.2,71.6,89,29.83,5.6,Calm,Calm,-,N/A,,Scattered Clouds,0,2013-02-06 21:30:00
5:30 AM,73.4,71.6,94,29.83,5.6,Calm,Calm,-,N/A,,Scattered Clouds,0,2013-02-06 22:30:00
6:00 AM,75.2,71.6,89,29.83,5.6,Calm,Calm,-,N/A,,Scattered Clouds,0,2013-02-06 23:00:00
6:30 AM,75.2,71.6,89,29.86,5.6,Calm,Calm,-,N/A,,Mostly Cloudy,0,2013-02-06 23:30:00
7:00 AM,75,73,92,29.81,5,Calm,Calm,,,,Mist,,2013-02-07 00:00:00
7:30 AM,75.2,73.4,94,29.86,5.0,Calm,Calm,-,N/A,,Mostly Cloudy,0,2013-02-07 00:30:00
8:00 AM,77.0,73.4,89,29.86,5.0,Calm,Calm,-,N/A,,Mostly Cloudy,0,2013-02-07 01:00:00
8:30 AM,78.8,73.4,83,29.89,4.3,Calm,Calm,-,N/A,,Mostly Cloudy,0,2013-02-07 01:30:00
9:00 AM,84.2,71.6,66,29.89,4.3,Variable,1.2,-,N/A,,Mostly Cloudy,0,2013-02-07 02:00:00
9:30 AM,84.2,71.6,66,29.89,4.3,ENE,3.5,-,N/A,,Mostly Cloudy,60,2013-02-07 02:30:00
10:00 AM,86.0,71.6,62,29.89,4.3,ENE,4.6,-,N/A,,Mostly Cloudy,70,2013-02-07 03:00:00
10:30 AM,87.8,71.6,58,29.89,4.3,East,4.6,-,N/A,,Mostly Cloudy,90,2013-02-07 03:30:00
11:00 AM,87.8,71.6,58,29.89,4.3,Variable,5.8,-,N/A,,Mostly Cloudy,0,2013-02-07 04:00:00
11:30 AM,86.0,71.6,62,29.89,5.0,West,9.2,-,N/A,,Mostly Cloudy,260,2013-02-07 04:30:00
12:00 PM,87.8,71.6,58,29.89,5.0,West,9.2,-,N/A,,Mostly Cloudy,270,2013-02-07 05:00:00
12:30 PM,87.8,71.6,58,29.86,5.0,West,10.4,-,N/A,,Mostly Cloudy,270,2013-02-07 05:30:00
1:00 PM,88,73,54,29.84,4,West,8.1,,,,Haze,270,2013-02-07 06:00:00
1:00 PM,87.8,69.8,55,29.86,5.0,West,8.1,-,N/A,,Mostly Cloudy,270,2013-02-07 06:00:00
1:30 PM,86.0,71.6,62,29.86,5.0,WNW,8.1,-,N/A,,Mostly Cloudy,290,2013-02-07 06:30:00
2:00 PM,87.8,71.6,58,29.83,5.0,WNW,8.1,-,N/A,,Mostly Cloudy,290,2013-02-07 07:00:00
2:30 PM,86.0,73.4,66,29.83,5.0,WNW,10.4,-,N/A,,Mostly Cloudy,300,2013-02-07 07:30:00
3:00 PM,87.8,73.4,62,29.80,5.0,WNW,11.5,-,N/A,,Mostly Cloudy,290,2013-02-07 08:00:00
3:30 PM,87.8,75.2,66,29.80,5.0,West,12.7,-,N/A,,Mostly Cloudy,280,2013-02-07 08:30:00
4:00 PM,86.0,73.4,66,29.80,5.0,WNW,12.7,-,N/A,,Mostly Cloudy,300,2013-02-07 09:00:00
4:30 PM,86.0,73.4,66,29.77,4.3,WNW,12.7,-,N/A,,Mostly Cloudy,290,2013-02-07 09:30:00
5:00 PM,84.2,73.4,70,29.77,4.3,NW,11.5,-,N/A,,Mostly Cloudy,310,2013-02-07 10:00:00
5:30 PM,84.2,73.4,70,29.80,4.3,WNW,10.4,-,N/A,,Mostly Cloudy,290,2013-02-07 10:30:00
6:00 PM,84.2,75.2,74,29.80,4.3,WNW,10.4,-,N/A,,Mostly Cloudy,300,2013-02-07 11:00:00
6:30 PM,82.4,75.2,79,29.80,5.0,WNW,10.4,-,N/A,Thunderstorm,Thunderstorm,290,2013-02-07 11:30:00
7:00 PM,84,77,74,29.77,5,West,8.1,,,,Mist,270,2013-02-07 12:00:00
7:00 PM,82.4,75.2,79,29.80,4.3,WNW,8.1,-,N/A,,Scattered Clouds,290,2013-02-07 12:00:00
7:30 PM,82.4,75.2,79,29.83,5.0,Variable,2.3,-,N/A,,Scattered Clouds,0,2013-02-07 12:30:00
8:00 PM,82.4,75.2,79,29.83,5.0,West,4.6,-,N/A,,Mostly Cloudy,280,2013-02-07 13:00:00
8:30 PM,82.4,75.2,79,29.83,5.0,WNW,5.8,-,N/A,,Mostly Cloudy,300,2013-02-07 13:30:00
9:00 PM,82.4,75.2,79,29.86,5.0,NW,6.9,-,N/A,,Mostly Cloudy,310,2013-02-07 14:00:00
9:30 PM,82.4,75.2,79,29.86,5.0,NW,6.9,-,N/A,,Mostly Cloudy,320,2013-02-07 14:30:00
10:00 PM,82.4,75.2,79,29.86,5.0,NW,6.9,-,N/A,,Mostly Cloudy,310,2013-02-07 15:00:00
10:30 PM,82.4,75.2,79,29.86,5.0,NW,4.6,-,N/A,,Mostly Cloudy,310,2013-02-07 15:30:00
11:00 PM,82.4,75.2,79,29.86,5.0,WNW,4.6,-,N/A,,Mostly Cloudy,290,2013-02-07 16:00:00
11:30 PM,80.6,75.2,84,29.86,5.0,Variable,1.2,-,N/A,,Mostly Cloudy,0,2013-02-07 16:30:00